^^
Station Historical Data
Daily Summary for January 3, 2018 Units:  Metric    English   Both
« Previous Day
Next Day »
Daily Weekly Monthly Yearly Custom
  High: Low: Average:
Temperature: -17.8 °C 19.8 °C 27.1 °C
Dew Point: -17.8 °C -15.2 °C -8.6 °C
Humidity: Humidity% 5% 10%
Wind Speed: 0km/h 0km/h 5.6km/h
Wind Gust: 0km/h - -
Wind- - ESE
Pressure: 0 hPa 1019.2 hPa -
Precipitation: 0 mm    
Historical Graphs
 
 
Tabular Data for January 3, 2018
Time Temperature Dew Point Pressure Wind Wind Speed Wind Gust Humidity Rainfall Rate (Hourly) solar Conditions
-17.8 °C -17.8 °C 0 hPa Calm     Humidity% 0 mm SolarRadiationWatts/m^2 W/m2 Conditions
00:03 23.9 °C -6.2 °C 1021.6 hPa Calm   6.4 km/h 13% 0 mm 0.0 W/m2
00:08 23.8 °C -6.3 °C 1021.6 hPa ENE 1.4 km/h 4.8 km/h 13% 0 mm 0.0 W/m2
00:13 23.8 °C -4.4 °C 1021.6 hPa ENE 1.4 km/h 1.6 km/h 15% 0 mm 0.0 W/m2
00:18 23.6 °C -5.5 °C 1021.6 hPa Calm   1.6 km/h 14% 0 mm 0.0 W/m2
00:29 23.4 °C -4.7 °C 1021.2 hPa Calm   1.6 km/h 15% 0 mm 0.0 W/m2
00:34 23.2 °C -4.9 °C 1021.2 hPa NNE 4.7 km/h 6.4 km/h 15% 0 mm 0.0 W/m2
00:39 22.9 °C -6 °C 1021.2 hPa SE 1.4 km/h 8 km/h 14% 0 mm 0.0 W/m2
00:44 22.9 °C -6 °C 1021.2 hPa East 1.4 km/h 6.4 km/h 14% 0 mm 0.0 W/m2
00:49 23.1 °C -5.9 °C 1021.2 hPa SE 3.2 km/h 11.3 km/h 14% 0 mm 0.0 W/m2
00:54 23.2 °C -5.8 °C 1021.2 hPa SE 1.4 km/h 9.7 km/h 14% 0 mm 0.0 W/m2
00:59 23.3 °C -5.7 °C 1021.2 hPa SE 6.4 km/h 12.9 km/h 14% 0 mm 0.0 W/m2
01:02 23.3 °C -5.7 °C 1021.2 hPa East 4.7 km/h 11.3 km/h 14% 0 mm 0.0 W/m2
01:07 23.3 °C -5.7 °C 1021.2 hPa ESE 6.4 km/h 8 km/h 14% 0 mm 0.0 W/m2
01:13 23.3 °C -6.7 °C 1021.2 hPa NE 1.4 km/h 6.4 km/h 13% 0 mm 0.0 W/m2
01:18 23.2 °C -5.8 °C 1021.2 hPa SE 3.2 km/h 4.8 km/h 14% 0 mm 0.0 W/m2
01:23 23.1 °C -5.9 °C 1021.2 hPa Calm   3.2 km/h 14% 0 mm 0.0 W/m2
01:28 23 °C -5.9 °C 1021.2 hPa Calm   3.2 km/h 14% 0 mm 0.0 W/m2
01:31 22.9 °C -6 °C 1021.2 hPa Calm   4.8 km/h 14% 0 mm 0.0 W/m2
01:36 22.7 °C -6.2 °C 1021.2 hPa Calm   1.6 km/h 14% 0 mm 0.0 W/m2
01:46 22.4 °C -7.4 °C 1021.2 hPa SE 1.4 km/h 6.4 km/h 13% 0 mm 0.0 W/m2
01:51 22.3 °C -7.5 °C 1021.2 hPa Calm   1.6 km/h 13% 0 mm 0.0 W/m2
02:00 22.3 °C -8.5 °C 1021.2 hPa SE 4.7 km/h 8 km/h 12% 0 mm 0.0 W/m2
02:09 22.4 °C -8.4 °C 1020.9 hPa SSE 7.9 km/h 17.7 km/h 12% 0 mm 0.0 W/m2
02:14 22.5 °C -8.3 °C 1020.9 hPa SE 16.3 km/h 27.4 km/h 12% 0 mm 0.0 W/m2
02:25 22.6 °C -8.3 °C 1020.9 hPa SE 6.4 km/h 17.7 km/h 12% 0 mm 0.0 W/m2
02:27 22.6 °C -8.3 °C 1020.9 hPa ENE 4.7 km/h 20.9 km/h 12% 0 mm 0.0 W/m2
02:33 22.6 °C -8.3 °C 1020.9 hPa SSE 4.7 km/h 12.9 km/h 12% 0 mm 0.0 W/m2
02:44 22.6 °C -9.4 °C 1020.9 hPa South 11.1 km/h 20.9 km/h 11% 0 mm 0.0 W/m2
02:49 22.6 °C -9.4 °C 1020.5 hPa SE 7.9 km/h 17.7 km/h 11% 0 mm 0.0 W/m2
02:54 22.7 °C -9.3 °C 1020.5 hPa SE 13 km/h 22.5 km/h 11% 0 mm 0.0 W/m2
03:00 22.7 °C -9.3 °C 1020.9 hPa NNE 4.7 km/h 22.5 km/h 11% 0 mm 0.0 W/m2
03:05 22.6 °C -9.4 °C 1020.5 hPa East 11.1 km/h 16.1 km/h 11% 0 mm 0.0 W/m2
03:10 22.6 °C -9.4 °C 1020.9 hPa East 14.3 km/h 17.7 km/h 11% 0 mm 0.0 W/m2
03:15 22.4 °C -9.5 °C 1020.9 hPa SE 20.9 km/h 22.5 km/h 11% 0 mm 0.0 W/m2
03:16 22.4 °C -9.5 °C 1020.9 hPa South 7.9 km/h 22.5 km/h 11% 0 mm 0.0 W/m2
03:21 22.4 °C -9.5 °C 1020.9 hPa Calm   16.1 km/h 11% 0 mm 0.0 W/m2
03:26 22.3 °C -9.6 °C 1020.5 hPa East 9.7 km/h 17.7 km/h 11% 0 mm 0.0 W/m2
03:31 22.3 °C -9.6 °C 1020.9 hPa South 3.2 km/h 20.9 km/h 11% 0 mm 0.0 W/m2
03:52 22.2 °C -9.7 °C 1020.9 hPa East 9.7 km/h 24.1 km/h 11% 0 mm 0.0 W/m2
03:53 22.2 °C -9.7 °C 1020.9 hPa ENE 6.4 km/h 16.1 km/h 11% 0 mm 0.0 W/m2
03:58 22.2 °C -9.7 °C 1020.9 hPa ESE 16.3 km/h 24.1 km/h 11% 0 mm 0.0 W/m2
04:01 22.2 °C -9.7 °C 1020.9 hPa East 13 km/h 17.7 km/h 11% 0 mm 0.0 W/m2
04:06 22.2 °C -9.7 °C 1020.9 hPa SE 13 km/h 27.4 km/h 11% 0 mm 0.0 W/m2
04:11 22.2 °C -9.7 °C 1020.9 hPa ESE 4.7 km/h 17.7 km/h 11% 0 mm 0.0 W/m2
04:12 22.2 °C -9.7 °C 1020.9 hPa Calm   19.3 km/h 11% 0 mm 0.0 W/m2
04:17 22.2 °C -9.7 °C 1020.9 hPa ESE 13 km/h 16.1 km/h 11% 0 mm 0.0 W/m2
04:22 22.1 °C -9.8 °C 1020.9 hPa East 1.4 km/h 16.1 km/h 11% 0 mm 0.0 W/m2
04:27 21.9 °C -9.9 °C 1021.6 hPa East 6.4 km/h 17.7 km/h 11% 0 mm 0.0 W/m2
04:29 21.9 °C -9.9 °C 1021.6 hPa ESE 20.9 km/h 20.9 km/h 11% 0 mm 0.0 W/m2
04:33 21.9 °C -9.9 °C 1021.6 hPa East 7.9 km/h 19.3 km/h 11% 0 mm 0.0 W/m2
04:38 21.9 °C -9.9 °C 1021.6 hPa ESE 7.9 km/h 11.3 km/h 11% 0 mm 0.0 W/m2
04:43 21.9 °C -9.9 °C 1021.6 hPa SE 4.7 km/h 19.3 km/h 11% 0 mm 0.0 W/m2
04:51 21.8 °C -10 °C 1021.6 hPa East 16.3 km/h 22.5 km/h 11% 0 mm 0.0 W/m2
04:57 21.8 °C -10 °C 1021.6 hPa East 9.7 km/h 20.9 km/h 11% 0 mm 0.0 W/m2
05:02 21.8 °C -10 °C 1021.6 hPa East 9.7 km/h 19.3 km/h 11% 0 mm 0.0 W/m2
05:08 21.9 °C -9.9 °C 1021.6 hPa ESE 13 km/h 25.7 km/h 11% 0 mm 0.0 W/m2
05:16 21.9 °C -9.9 °C 1021.6 hPa ESE 22.7 km/h 24.1 km/h 11% 0 mm 0.0 W/m2
05:21 21.9 °C -9.9 °C 1021.6 hPa SSE 1.4 km/h 17.7 km/h 11% 0 mm 0.0 W/m2
05:32 21.8 °C -10 °C 1021.9 hPa East 4.7 km/h 17.7 km/h 11% 0 mm 0.0 W/m2
05:37 21.8 °C -10 °C 1021.9 hPa Calm   19.3 km/h 11% 0 mm 0.0 W/m2
05:42 21.7 °C -10.1 °C 1022.2 hPa SE 6.4 km/h 16.1 km/h 11% 0 mm 0.0 W/m2
05:47 21.7 °C -10.1 °C 1022.2 hPa NNE 6.4 km/h 6.4 km/h 11% 0 mm 0.0 W/m2
05:52 21.6 °C -10.1 °C 1022.2 hPa ESE 1.4 km/h 11.3 km/h 11% 0 mm 0.0 W/m2
05:57 21.3 °C -9.3 °C 1022.2 hPa Calm   8 km/h 12% 0 mm 0.0 W/m2
05:59 21.2 °C -9.4 °C 1022.2 hPa Calm   4.8 km/h 12% 0 mm 0.0 W/m2
06:05 20.9 °C -8.6 °C 1022.6 hPa Calm   3.2 km/h 13% 0 mm 0.0 W/m2
06:12 20.5 °C -8.9 °C 1022.6 hPa SSE 3.2 km/h 6.4 km/h 13% 0 mm 0.0 W/m2
06:17 20.2 °C -9.1 °C 1022.6 hPa ENE 3.2 km/h 8 km/h 13% 0 mm 5.0 W/m2
06:19 20.2 °C -8.2 °C 1022.6 hPa Calm   4.8 km/h 14% 0 mm 5.0 W/m2
06:24 20 °C -8.3 °C 1022.6 hPa SE 3.2 km/h 6.4 km/h 14% 0 mm 7.0 W/m2
06:29 19.9 °C -8.4 °C 1022.6 hPa Calm   4.8 km/h 14% 0 mm 9.0 W/m2
06:34 19.9 °C -7.5 °C 1022.6 hPa ENE 1.4 km/h 6.4 km/h 15% 0 mm 11.0 W/m2
06:39 19.8 °C -7.6 °C 1022.6 hPa SSE 4.7 km/h 12.9 km/h 15% 0 mm 12.0 W/m2
06:44 19.9 °C -7.5 °C 1022.6 hPa NNE 1.4 km/h 6.4 km/h 15% 0 mm 14.0 W/m2
06:49 19.9 °C -6.7 °C 1022.6 hPa ESE 4.7 km/h 12.9 km/h 16% 0 mm 16.0 W/m2
06:54 20 °C -6.6 °C 1022.9 hPa ESE 1.4 km/h 14.5 km/h 16% 0 mm 16.0 W/m2
06:56 20.1 °C -7.4 °C 1022.9 hPa ESE 1.4 km/h 11.3 km/h 15% 0 mm 18.0 W/m2
07:02 20.2 °C -6.4 °C 1022.9 hPa North 1.4 km/h 11.3 km/h 16% 0 mm 18.0 W/m2
07:07 20.4 °C -7.1 °C 1022.9 hPa SSE 6.4 km/h 11.3 km/h 15% 0 mm 19.0 W/m2
07:08 20.4 °C -7.1 °C 1022.9 hPa SE 6.4 km/h 17.7 km/h 15% 0 mm 19.0 W/m2
07:13 20.7 °C -6 °C 1022.9 hPa ENE 11.1 km/h 17.7 km/h 16% 0 mm 21.0 W/m2
07:16 20.7 °C -6 °C 1022.9 hPa NE 7.9 km/h 12.9 km/h 16% 0 mm 21.0 W/m2
07:19 20.8 °C -6.8 °C 1022.9 hPa East 7.9 km/h 16.1 km/h 15% 0 mm 21.0 W/m2
07:24 20.9 °C -5.9 °C 1022.9 hPa ENE 7.9 km/h 16.1 km/h 16% 0 mm 23.0 W/m2
07:25 20.9 °C -5.9 °C 1022.9 hPa East 1.4 km/h 16.1 km/h 16% 0 mm 23.0 W/m2
07:30 21 °C -5.8 °C 1023.2 hPa ESE 9.7 km/h 14.5 km/h 16% 0 mm 25.0 W/m2
07:36 21.2 °C -5.6 °C 1023.2 hPa ENE 6.4 km/h 16.1 km/h 16% 0 mm 25.0 W/m2
07:42 21.3 °C -5.5 °C 1023.2 hPa ENE 6.4 km/h 9.7 km/h 16% 0 mm 26.0 W/m2
07:47 21.6 °C -5.3 °C 1023.2 hPa ENE 9.7 km/h 16.1 km/h 16% 0 mm 49.0 W/m2
07:52 21.7 °C -5.2 °C 1023.2 hPa SE 1.4 km/h 12.9 km/h 16% 0 mm 332.0 W/m2
07:57 22.1 °C -5.8 °C 1023.2 hPa East 4.7 km/h 19.3 km/h 15% 0 mm 387.0 W/m2
08:01 22.4 °C -6.4 °C 1023.2 hPa NNE 6.4 km/h 19.3 km/h 14% 0 mm 406.0 W/m2
08:07 22.8 °C -5.2 °C 1023.2 hPa SSE 4.7 km/h 17.7 km/h 15% 0 mm 429.0 W/m2
08:08 22.9 °C -5.1 °C 1023.2 hPa ESE 6.4 km/h 17.7 km/h 15% 0 mm 434.0 W/m2
08:13 23.2 °C -4.9 °C 1023.2 hPa NNE 3.2 km/h 12.9 km/h 15% 0 mm 454.0 W/m2
08:18 23.6 °C -5.5 °C 1023.2 hPa Calm   9.7 km/h 14% 0 mm 475.0 W/m2
08:23 23.8 °C -5.3 °C 1023.2 hPa ENE 9.7 km/h 14.5 km/h 14% 0 mm 494.0 W/m2
08:28 24.1 °C -5.1 °C 1023.2 hPa ENE 6.4 km/h 16.1 km/h 14% 0 mm 515.0 W/m2
08:33 24.2 °C -6 °C 1023.2 hPa ESE 4.7 km/h 17.7 km/h 13% 0 mm 533.0 W/m2
08:38 24.4 °C -5.8 °C 1023.2 hPa SSE 9.7 km/h 16.1 km/h 13% 0 mm 552.0 W/m2
08:43 24.6 °C -5.7 °C 1023.2 hPa East 3.2 km/h 19.3 km/h 13% 0 mm 571.0 W/m2
08:48 24.9 °C -5.4 °C 1023.2 hPa NNE 7.9 km/h 17.7 km/h 13% 0 mm 591.0 W/m2
08:53 25.2 °C -5.2 °C 1023.6 hPa East 3.2 km/h 22.5 km/h 13% 0 mm 608.0 W/m2
08:59 25.4 °C -5 °C 1023.6 hPa East 16.3 km/h 16.3 km/h 13% 0 mm 631.0 W/m2
09:02 25.4 °C -6.1 °C 1023.6 hPa NNE 4.7 km/h 17.7 km/h 12% 0 mm 643.0 W/m2
09:07 25.7 °C -4.8 °C 1023.6 hPa ENE 9.7 km/h 12.9 km/h 13% 0 mm 657.0 W/m2
09:12 25.9 °C -5.7 °C 1023.6 hPa ENE 9.7 km/h 16.1 km/h 12% 0 mm 675.0 W/m2
09:17 25.9 °C -5.7 °C 1023.6 hPa SE 1.4 km/h 14.5 km/h 12% 0 mm 694.0 W/m2
09:23 26.2 °C -5.5 °C 1023.2 hPa East 11.1 km/h 24.1 km/h 12% 0 mm 712.0 W/m2
09:29 26.4 °C -5.3 °C 1023.6 hPa ESE 4.7 km/h 16.1 km/h 12% 0 mm 733.0 W/m2
09:30 26.5 °C -5.2 °C 1023.6 hPa South 4.7 km/h 16.1 km/h 12% 0 mm 738.0 W/m2
09:36 26.6 °C -5.1 °C 1023.2 hPa East 4.7 km/h 8 km/h 12% 0 mm 740.0 W/m2
09:41 27.1 °C -4.8 °C 1023.6 hPa East 1.4 km/h 12.9 km/h 12% 0 mm 775.0 W/m2
09:44 27.2 °C -3.6 °C 1023.6 hPa ENE 14.3 km/h 19.3 km/h 13% 0 mm 786.0 W/m2
09:49 27.6 °C -4.4 °C 1023.2 hPa NE 4.7 km/h 12.9 km/h 12% 0 mm 800.0 W/m2
09:54 27.7 °C -5.4 °C 1023.2 hPa ENE 4.7 km/h 14.5 km/h 11% 0 mm 816.0 W/m2
10:05 27.9 °C -5.3 °C 1023.2 hPa East 6.4 km/h 16.1 km/h 11% 0 mm 844.0 W/m2
10:10 28.1 °C -5.1 °C 1023.2 hPa ENE 6.4 km/h 16.1 km/h 11% 0 mm 861.0 W/m2
10:15 28.2 °C -6.3 °C 1023.2 hPa SSE 7.9 km/h 16.1 km/h 10% 0 mm 874.0 W/m2
10:20 28.1 °C -5.1 °C 1023.2 hPa SE 6.4 km/h 12.9 km/h 11% 0 mm 888.0 W/m2
10:25 28.1 °C -5.1 °C 1023.2 hPa ESE 11.1 km/h 14.5 km/h 11% 0 mm 902.0 W/m2
10:29 28.1 °C -7.8 °C 1023.2 hPa ESE 4.7 km/h 20.9 km/h 9% 0 mm 912.0 W/m2
10:34 28.2 °C -6.3 °C 1023.2 hPa East 3.2 km/h 16.1 km/h 10% 0 mm 926.0 W/m2
10:39 28.3 °C -6.2 °C 1023.2 hPa Calm   9.7 km/h 10% 0 mm 937.0 W/m2
10:44 28.7 °C -5.9 °C 1023.2 hPa East 11.1 km/h 16.1 km/h 10% 0 mm 949.0 W/m2
10:49 28.8 °C -5.9 °C 1023.2 hPa SE 14.3 km/h 16.1 km/h 10% 0 mm 965.0 W/m2
10:55 28.9 °C -7.2 °C 1023.2 hPa NNE 4.7 km/h 12.9 km/h 9% 0 mm 974.0 W/m2
11:00 29.1 °C -5.6 °C 1023.2 hPa ESE 11.1 km/h 22.5 km/h 10% 0 mm 981.0 W/m2
11:15 29.6 °C -5.2 °C 1023.2 hPa NE 13 km/h 16.1 km/h 10% 0 mm 1009.0 W/m2
11:20 29.7 °C -6.6 °C 1023.2 hPa East 4.7 km/h 17.7 km/h 9% 0 mm 1020.0 W/m2
11:30 30.2 °C -6.2 °C 1023.2 hPa ESE 9.7 km/h 20.9 km/h 9% 0 mm 1035.0 W/m2
11:37 30.2 °C -6.2 °C 1022.9 hPa East 1.4 km/h 12.9 km/h 9% 0 mm 1046.0 W/m2
11:42 30.4 °C -6 °C 1022.9 hPa NNE 3.2 km/h 14.5 km/h 9% 0 mm 1049.0 W/m2
11:47 30.6 °C -5.9 °C 1022.9 hPa ESE 3.2 km/h 16.1 km/h 9% 0 mm 1055.0 W/m2
11:52 30.5 °C -6 °C 1022.9 hPa NE 1.4 km/h 14.5 km/h 9% 0 mm 1062.0 W/m2
12:02 30.9 °C -5.7 °C 1022.9 hPa ENE 3.2 km/h 11.3 km/h 9% 0 mm 1071.0 W/m2
12:07 31.1 °C -7 °C 1022.6 hPa North 1.4 km/h 3.2 km/h 8% 0 mm 1078.0 W/m2
12:08 31.1 °C -4.1 °C 1022.6 hPa SE 3.2 km/h 3.2 km/h 10% 0 mm 1078.0 W/m2
12:14 31.3 °C -5.4 °C 1022.6 hPa Calm   9.7 km/h 9% 0 mm 1085.0 W/m2
12:19 31.6 °C -3.7 °C 1022.6 hPa South 4.7 km/h 6.4 km/h 10% 0 mm 1085.0 W/m2
12:25 31.7 °C -6.6 °C 1022.6 hPa SE 7.9 km/h 12.9 km/h 8% 0 mm 1088.0 W/m2
12:30 31.7 °C -5.1 °C 1022.6 hPa SSE 4.7 km/h 17.7 km/h 9% 0 mm 1090.0 W/m2
12:35 31.7 °C -5.1 °C 1022.6 hPa ESE 6.4 km/h 14.5 km/h 9% 0 mm 1090.0 W/m2
12:41 31.7 °C -6.6 °C 1022.6 hPa NNE 7.9 km/h 11.3 km/h 8% 0 mm 1093.0 W/m2
12:46 31.9 °C -4.9 °C 1022.6 hPa SE 3.2 km/h 12.9 km/h 9% 0 mm 1093.0 W/m2
12:51 32.1 °C -6.3 °C 1022.2 hPa Calm   11.3 km/h 8% 0 mm 1083.0 W/m2
12:56 32.2 °C -4.7 °C 1022.2 hPa SE 3.2 km/h 4.8 km/h 9% 0 mm 1078.0 W/m2
13:01 32.3 °C -6.2 °C 1022.2 hPa South 7.9 km/h 11.3 km/h 8% 0 mm 1081.0 W/m2
13:11 32.2 °C -6.2 °C 1022.2 hPa ESE 4.7 km/h 9.7 km/h 8% 0 mm 1081.0 W/m2
13:13 32.2 °C -6.2 °C 1022.2 hPa East 6.4 km/h 8 km/h 8% 0 mm 1081.0 W/m2
13:19 32.4 °C -6.1 °C 1022.2 hPa South 7.9 km/h 19.3 km/h 8% 0 mm 1072.0 W/m2
13:24 32.4 °C -4.5 °C 1021.9 hPa SE 7.9 km/h 16.1 km/h 9% 0 mm 1079.0 W/m2
13:30 32.6 °C -4.4 °C 1021.9 hPa ESE 3.2 km/h 11.3 km/h 9% 0 mm 1078.0 W/m2
13:38 32.6 °C -5.9 °C 1021.9 hPa NE 1.4 km/h 1.6 km/h 8% 0 mm 1069.0 W/m2
13:44 32.7 °C -5.9 °C 1021.9 hPa Calm   3.2 km/h 8% 0 mm 1065.0 W/m2
13:49 32.9 °C -4.2 °C 1021.6 hPa SSE 11.1 km/h 19.3 km/h 9% 0 mm 1060.0 W/m2
13:54 33.1 °C -5.6 °C 1021.6 hPa SE 9.7 km/h 16.1 km/h 8% 0 mm 1056.0 W/m2
14:00 33.2 °C -5.5 °C 1021.6 hPa SSE 3.2 km/h 11.3 km/h 8% 0 mm 1051.0 W/m2
14:05 33.3 °C -5.4 °C 1021.6 hPa SE 7.9 km/h 16.1 km/h 8% 0 mm 1046.0 W/m2
14:10 33.3 °C -5.4 °C 1021.2 hPa Calm   6.4 km/h 8% 0 mm 1037.0 W/m2
14:15 33.2 °C -5.5 °C 1021.2 hPa Calm   11.3 km/h 8% 0 mm 1030.0 W/m2
14:21 33.5 °C -5.3 °C 1021.2 hPa SE 3.2 km/h 17.7 km/h 8% 0 mm 1020.0 W/m2
14:26 33.4 °C -7.1 °C 1020.9 hPa WNW 3.2 km/h 11.3 km/h 7% 0 mm 1011.0 W/m2
14:31 33.2 °C -5.5 °C 1020.9 hPa South 6.4 km/h 20.9 km/h 8% 0 mm 1004.0 W/m2
14:37 33.3 °C -5.4 °C 1020.9 hPa ESE 1.4 km/h 11.3 km/h 8% 0 mm 993.0 W/m2
14:48 33.7 °C -6.9 °C 1020.9 hPa SSE 9.7 km/h 19.3 km/h 7% 0 mm 970.0 W/m2
14:58 33.2 °C -7.2 °C 1020.5 hPa Calm   8 km/h 7% 0 mm 949.0 W/m2
15:03 33.6 °C -6.9 °C 1020.5 hPa Calm   4.8 km/h 7% 0 mm 942.0 W/m2
15:04 33.7 °C -6.9 °C 1020.5 hPa SW 4.7 km/h 14.5 km/h 7% 0 mm 935.0 W/m2
15:09 33.9 °C -6.7 °C 1020.5 hPa SSW 6.4 km/h 9.7 km/h 7% 0 mm 926.0 W/m2
15:14 33.8 °C -6.8 °C 1020.5 hPa ESE 1.4 km/h 6.4 km/h 7% 0 mm 911.0 W/m2
15:19 34.1 °C -6.6 °C 1020.2 hPa Calm   16.1 km/h 7% 0 mm 900.0 W/m2
15:25 34.3 °C -8.4 °C 1020.2 hPa ESE 1.4 km/h 8 km/h 6% 0 mm 884.0 W/m2
15:30 34.4 °C -6.4 °C 1020.2 hPa South 9.7 km/h 11.3 km/h 7% 0 mm 868.0 W/m2
15:35 34.4 °C -8.4 °C 1020.2 hPa South 6.4 km/h 11.3 km/h 6% 0 mm 854.0 W/m2
15:40 33.8 °C -8.8 °C 1020.2 hPa WNW 1.4 km/h 9.7 km/h 6% 0 mm 842.0 W/m2
15:45 33.8 °C -8.8 °C 1019.9 hPa Calm   3.2 km/h 6% 0 mm 828.0 W/m2
15:50 33.9 °C -8.7 °C 1019.9 hPa ESE 1.4 km/h 8 km/h 6% 0 mm 816.0 W/m2
15:55 33.8 °C -8.8 °C 1019.9 hPa SW 3.2 km/h 11.3 km/h 6% 0 mm 800.0 W/m2
15:58 33.9 °C -8.7 °C 1019.9 hPa ESE 13 km/h 13 km/h 6% 0 mm 789.0 W/m2
16:01 34 °C -8.6 °C 1019.9 hPa SE 6.4 km/h 12.9 km/h 6% 0 mm 782.0 W/m2
16:06 34.3 °C -6.4 °C 1019.9 hPa SSW 1.4 km/h 9.7 km/h 7% 0 mm 763.0 W/m2
16:11 34.5 °C -8.3 °C 1019.9 hPa SSE 4.7 km/h 11.3 km/h 6% 0 mm 747.0 W/m2
16:22 34.8 °C -8.1 °C 1019.5 hPa Calm   3.2 km/h 6% 0 mm 714.0 W/m2
16:27 34.9 °C -10.3 °C 1019.9 hPa SE 3.2 km/h 14.5 km/h 5% 0 mm 693.0 W/m2
16:32 34.7 °C -10.5 °C 1019.5 hPa Calm   3.2 km/h 5% 0 mm 675.0 W/m2
16:35 34.6 °C -8.2 °C 1019.5 hPa ESE 4.7 km/h 12.9 km/h 6% 0 mm 671.0 W/m2
16:40 34.2 °C -8.5 °C 1019.5 hPa WSW 6.4 km/h 8 km/h 6% 0 mm 649.0 W/m2
16:45 34.2 °C -6.5 °C 1019.5 hPa Calm   1.6 km/h 7% 0 mm 631.0 W/m2
16:51 34.1 °C -8.6 °C 1019.5 hPa East 4.7 km/h 12.9 km/h 6% 0 mm 612.0 W/m2
16:56 34.1 °C -8.6 °C 1019.5 hPa East 4.7 km/h 11.3 km/h 6% 0 mm 591.0 W/m2
17:03 34.3 °C -10.7 °C 1019.5 hPa SSE 11.1 km/h 16.1 km/h 5% 0 mm 570.0 W/m2
17:08 34.4 °C -10.7 °C 1019.5 hPa ESE 3.2 km/h 14.5 km/h 5% 0 mm 550.0 W/m2
17:14 34.3 °C -10.7 °C 1019.5 hPa SSW 3.2 km/h 6.4 km/h 5% 0 mm 527.0 W/m2
17:19 34.3 °C -10.7 °C 1019.5 hPa Calm   3.2 km/h 5% 0 mm 508.0 W/m2
17:21 34.4 °C -10.7 °C 1019.5 hPa Calm   11.3 km/h 5% 0 mm 499.0 W/m2
17:26 34.6 °C -10.5 °C 1019.5 hPa SW 6.4 km/h 12.9 km/h 5% 0 mm 482.0 W/m2
17:31 34.5 °C -10.6 °C 1019.2 hPa SSE 11.1 km/h 16.1 km/h 5% 0 mm 462.0 W/m2
17:36 34.4 °C -10.7 °C 1019.2 hPa SSW 6.4 km/h 6.4 km/h 5% 0 mm 441.0 W/m2
17:46 34.4 °C -10.7 °C 1019.5 hPa SSE 13 km/h 13 km/h 5% 0 mm 403.0 W/m2
17:49 34.3 °C -10.7 °C 1019.5 hPa SSW 3.2 km/h 6.4 km/h 5% 0 mm 392.0 W/m2
17:55 34.2 °C -10.8 °C 1019.5 hPa SSE 7.9 km/h 8 km/h 5% 0 mm 367.0 W/m2
18:00 34.2 °C -10.8 °C 1019.5 hPa WSW 1.4 km/h 4.8 km/h 5% 0 mm 346.0 W/m2
18:06 34.2 °C -10.8 °C 1019.5 hPa SE 9.7 km/h 17.7 km/h 5% 0 mm 323.0 W/m2
18:11 34.1 °C -10.9 °C 1019.5 hPa ENE 3.2 km/h 12.9 km/h 5% 0 mm 302.0 W/m2
18:16 34.2 °C -10.8 °C 1019.5 hPa South 4.7 km/h 4.8 km/h 5% 0 mm 281.0 W/m2
18:21 34.2 °C -10.8 °C 1019.5 hPa ESE 7.9 km/h 9.7 km/h 5% 0 mm 260.0 W/m2
18:26 33.9 °C -11 °C 1019.5 hPa ENE 1.4 km/h 11.3 km/h 5% 0 mm 239.0 W/m2
18:31 33.7 °C -11.2 °C 1019.5 hPa SE 4.7 km/h 4.8 km/h 5% 0 mm 218.0 W/m2
18:32 33.7 °C -11.2 °C 1019.5 hPa SE 7.9 km/h 11.3 km/h 5% 0 mm 216.0 W/m2
18:37 33.5 °C -11.3 °C 1019.5 hPa SE 11.1 km/h 12.9 km/h 5% 0 mm 195.0 W/m2
18:47 33 °C -11.7 °C 1019.9 hPa WSW 6.4 km/h 6.4 km/h 5% 0 mm 30.0 W/m2
18:53 32.5 °C -12 °C 1019.9 hPa SE 1.4 km/h 1.6 km/h 5% 0 mm 26.0 W/m2
19:04 32 °C -10.1 °C 1019.9 hPa SE 3.2 km/h 6.4 km/h 6% 0 mm 21.0 W/m2
19:09 31.7 °C -12.6 °C 1019.9 hPa SSE 3.2 km/h 8 km/h 5% 0 mm 19.0 W/m2
19:17 31.4 °C -12.8 °C 1020.2 hPa East 4.7 km/h 6.4 km/h 5% 0 mm 14.0 W/m2
19:27 30.9 °C -10.9 °C 1020.2 hPa East 1.4 km/h 4.8 km/h 6% 0 mm 9.0 W/m2
19:32 30.5 °C -11.2 °C 1020.2 hPa ESE 6.4 km/h 11.3 km/h 6% 0 mm 7.0 W/m2
19:37 30.2 °C -11.4 °C 1020.5 hPa East 9.7 km/h 16.1 km/h 6% 0 mm 5.0 W/m2
19:42 29.9 °C -13.8 °C 1020.5 hPa SE 7.9 km/h 8 km/h 5% 0 mm 0.0 W/m2
19:49 29.6 °C -14 °C 1020.5 hPa ESE 1.4 km/h 11.3 km/h 5% 0 mm 0.0 W/m2
19:54 29.3 °C -14.3 °C 1020.5 hPa ESE 3.2 km/h 11.3 km/h 5% 0 mm 0.0 W/m2
19:59 29.2 °C -14.3 °C 1020.5 hPa SSE 11.1 km/h 11.3 km/h 5% 0 mm 0.0 W/m2
20:05 28.9 °C -12.3 °C 1020.9 hPa ESE 6.4 km/h 11.3 km/h 6% 0 mm 0.0 W/m2
20:14 28.5 °C -14.8 °C 1020.9 hPa ESE 4.7 km/h 11.3 km/h 5% 0 mm 0.0 W/m2
20:19 28.3 °C -15 °C 1020.9 hPa SE 3.2 km/h 8 km/h 5% 0 mm 0.0 W/m2
20:25 28.2 °C -15 °C 1020.9 hPa SE 4.7 km/h 9.7 km/h 5% 0 mm 0.0 W/m2
20:32 27.9 °C -15.2 °C 1020.9 hPa SE 7.9 km/h 11.3 km/h 5% 0 mm 0.0 W/m2
20:34 27.9 °C -15.2 °C 1020.9 hPa SE 7.9 km/h 9.7 km/h 5% 0 mm 0.0 W/m2
20:46 27.5 °C -13.3 °C 1020.9 hPa SE 6.4 km/h 12.9 km/h 6% 0 mm 0.0 W/m2
20:51 27.4 °C -13.4 °C 1021.2 hPa SE 3.2 km/h 8 km/h 6% 0 mm 0.0 W/m2
20:54 27.3 °C -13.4 °C 1021.2 hPa SE 4.7 km/h 9.7 km/h 6% 0 mm 0.0 W/m2
21:01 27.2 °C -13.5 °C 1021.2 hPa SE 6.4 km/h 12.9 km/h 6% 0 mm 0.0 W/m2
21:06 27.1 °C -13.6 °C 1021.2 hPa SSE 6.4 km/h 9.7 km/h 6% 0 mm 0.0 W/m2
21:11 27.1 °C -13.6 °C 1021.2 hPa ESE 9.7 km/h 11.3 km/h 6% 0 mm 0.0 W/m2
21:16 27 °C -13.7 °C 1021.2 hPa SE 7.9 km/h 14.5 km/h 6% 0 mm 0.0 W/m2
21:21 26.9 °C -13.7 °C 1021.6 hPa ESE 6.4 km/h 14.5 km/h 6% 0 mm 0.0 W/m2
21:26 26.9 °C -13.7 °C 1021.6 hPa ESE 6.4 km/h 12.9 km/h 6% 0 mm 0.0 W/m2
21:31 26.9 °C -13.7 °C 1021.6 hPa SE 7.9 km/h 12.9 km/h 6% 0 mm 0.0 W/m2
21:36 26.9 °C -13.7 °C 1021.6 hPa SE 6.4 km/h 14.5 km/h 6% 0 mm 0.0 W/m2
21:37 26.9 °C -13.7 °C 1021.6 hPa SE 7.9 km/h 14.5 km/h 6% 0 mm 0.0 W/m2
21:42 26.8 °C -13.8 °C 1021.6 hPa ESE 3.2 km/h 14.5 km/h 6% 0 mm 0.0 W/m2
21:47 26.8 °C -13.8 °C 1021.6 hPa SE 7.9 km/h 16.1 km/h 6% 0 mm 0.0 W/m2
21:52 26.8 °C -13.8 °C 1021.9 hPa SE 9.7 km/h 16.1 km/h 6% 0 mm 0.0 W/m2
21:54 26.8 °C -13.8 °C 1021.9 hPa East 6.4 km/h 16.1 km/h 6% 0 mm 0.0 W/m2
22:05 26.7 °C -13.9 °C 1021.9 hPa ESE 16.3 km/h 16.3 km/h 6% 0 mm 0.0 W/m2
22:10 26.7 °C -13.9 °C 1021.9 hPa SSE 3.2 km/h 16.1 km/h 6% 0 mm 0.0 W/m2
22:18 26.7 °C -13.9 °C 1021.9 hPa SE 9.7 km/h 11.3 km/h 6% 0 mm 0.0 W/m2
22:23 26.6 °C -14 °C 1022.2 hPa ESE 4.7 km/h 12.9 km/h 6% 0 mm 0.0 W/m2
22:25 26.6 °C -14 °C 1022.2 hPa SE 9.7 km/h 16.1 km/h 6% 0 mm 0.0 W/m2
22:30 26.5 °C -14 °C 1022.2 hPa SE 9.7 km/h 17.7 km/h 6% 0 mm 0.0 W/m2
22:35 26.4 °C -14.1 °C 1022.2 hPa SE 1.4 km/h 12.9 km/h 6% 0 mm 0.0 W/m2
22:45 26.3 °C -12.3 °C 1022.2 hPa SE 7.9 km/h 19.3 km/h 7% 0 mm 0.0 W/m2
22:49 26.3 °C -12.3 °C 1022.2 hPa ESE 7.9 km/h 16.1 km/h 7% 0 mm 0.0 W/m2
22:54 26.3 °C -10.6 °C 1022.2 hPa SE 9.7 km/h 11.3 km/h 8% 0 mm 0.0 W/m2
23:01 26.3 °C -10.6 °C 1022.6 hPa SE 11.1 km/h 11.3 km/h 8% 0 mm 0.0 W/m2
23:12 26.3 °C -10.6 °C 1022.6 hPa ESE 4.7 km/h 12.9 km/h 8% 0 mm 0.0 W/m2
23:17 26.3 °C -10.6 °C 1022.6 hPa ESE 11.1 km/h 17.7 km/h 8% 0 mm 0.0 W/m2
23:32 26.3 °C -10.6 °C 1022.6 hPa ESE 13 km/h 16.1 km/h 8% 0 mm 0.0 W/m2
23:33 26.3 °C -10.6 °C 1022.6 hPa SE 9.7 km/h 14.5 km/h 8% 0 mm 0.0 W/m2
23:38 26.4 °C -10.5 °C 1022.6 hPa SE 11.1 km/h 11.3 km/h 8% 0 mm 0.0 W/m2
23:43 26.4 °C -10.5 °C 1022.6 hPa SE 7.9 km/h 16.1 km/h 8% 0 mm 0.0 W/m2
23:49 26.3 °C -10.6 °C 1022.6 hPa SE 9.7 km/h 14.5 km/h 8% 0 mm 0.0 W/m2
23:54 26.3 °C -10.6 °C 1022.6 hPa SSE 4.7 km/h 16.1 km/h 8% 0 mm 0.0 W/m2
23:59 26.3 °C -10.6 °C 1022.6 hPa SE 9.7 km/h 12.9 km/h 8% 0 mm 0.0 W/m2
Olympia, Windhoek, Namibia
Compliments of Weather Underground - 3.25 mb